Regional Weather Roundup
Issued by NWS

Home | Current Version | Previous Version | Graphics & Text | Print | Product List | Glossary On
Versions: 1 2 3 4 5 6 7 8 9 10 11 12 13 14 15 16 17 18 19 20 21 22 23 24 25 26 27 28 29 30 31 32 33 34 35 36 37 38 39 40 41 42 43 44 45 46 47 48 49 50
000
ASUS43 KMKX 060811
RWRWI

WISCONSIN REGIONAL WEATHER ROUNDUP
NATIONAL WEATHER SERVICE MILWAUKEE/SULLIVAN WI
300 AM CDT WED MAY 06 2015

NOTE: "FAIR" INDICATES FEW OR NO CLOUDS BELOW 12,000 FEET WITH NO
SIGNIFICANT WEATHER AND/OR OBSTRUCTIONS TO VISIBILITY.

WIZ001-002-006>008-014>016-023>028-060900-
NORTHWEST WISCONSIN

CITY           SKY/WX    TMP DP  RH WIND       PRES   REMARKS
SUPERIOR ARPT  MOCLDY    41  34  75 NE7       30.15F
ASHLAND        PTCLDY    41  32  70 CALM      30.17F
HAYWARD        MOCLDY    56  31  38 S8        30.15F
SIREN          CLOUDY    56  48  75 SE8       30.13S
CUMBERLAND     RAIN      50  45  81 SE9G16    30.14F
RICE LAKE      RAIN      50  47  88 E14       30.16F
CHETEK         DRIZZLE   50  48  92 E9        30.16F
LADYSMITH      LGT RAIN  52  44  75 SE5       30.20S
EAU CLAIRE     CLOUDY    52  49  89 E7        30.14F
MENOMONIE      CLOUDY    54  50  88 E6        30.14F
NEW RICHMOND   CLOUDY    53  52  97 SE7       30.12F
OSCEOLA        CLOUDY    54  53  98 SE9       30.14F
$$

WIZ003>005-009-010-017-018-060900-
NORTH CENTRAL WISCONSIN

CITY           SKY/WX    TMP DP  RH WIND       PRES   REMARKS
MANITOWISH WTR PTCLDY    49  29  44 SE5       30.19F
ARBOR VITAE    CLOUDY    52  29  40 S5        30.20S
WOODRUFF       CLOUDY    52  29  40 S5        30.20S
RHINELANDER    CLOUDY    51  27  39 CALM      30.22S
EAGLE RIVER    PTCLDY    40  29  67 CALM      30.20F
LAND O LAKES   PTCLDY    36  33  87 CALM      30.22S
PHILLIPS       CLOUDY    53  29  40 SE5       30.18F
TOMAHAWK       CLOUDY    51  28  40 SE3       30.21S
MEDFORD        RAIN      47  43  84 SE5       30.19F
MERRILL        CLOUDY    53  35  50 SE8       30.21F
$$

WIZ029-030-035-036-043>047-060900-
CENTRAL WISCONSIN

CITY           SKY/WX    TMP DP  RH WIND       PRES   REMARKS
WAUSAU         RAIN      50  41  71 SE12      30.20F
MOSINEE        CLOUDY    50  39  66 E8        30.21F
MARSHFIELD     CLOUDY    51  46  83 SE10      30.19F
STEVENS POINT  CLOUDY    50  43  77 E7        30.21F
WAUPACA        CLOUDY    53  43  68 CALM      30.21F
WAUTOMA        CLOUDY    51  49  93 E6        30.21F
WISC RAPIDS    CLOUDY    51  46  83 E6        30.21F
CAMP DOUGLAS   CLOUDY    51  51 100 E8        30.17F
$$

WIZ011>013-019>022-031-037>040-048>050-060900-
NORTHEAST WISCONSIN

CITY           SKY/WX    TMP DP  RH WIND       PRES   REMARKS
ANTIGO         CLOUDY    48  37  64 SE5       30.22F
SHAWANO        CLOUDY    51  43  74 CALM      30.22F
OCONTO         CLOUDY    48  44  85 CALM      30.21F
STURGEON BAY   CLOUDY    48  28  46 E7        30.24F
GREEN BAY      LGT RAIN  52  44  74 S3        30.22F
MANITOWOC      LGT RAIN  49  42  77 CALM      30.24S
APPLETON       CLOUDY    50  37  62 E5        30.22F
CLINTONVILLE   CLOUDY    52  36  54 CALM      30.22F
OSHKOSH        LGT RAIN  49  43  80 SE6       30.20F
$$

WIZ032>034-041-042-053>061-060900-
SOUTHWEST WISCONSIN

CITY           SKY/WX    TMP DP  RH WIND       PRES   REMARKS
LA CROSSE      CLOUDY    56  52  86 E7        30.14F
SPARTA         CLOUDY    53  51  94 E3        30.17F
VIROQUA        CLOUDY    51  51 100 E8        30.14F
BOSCOBEL       CLOUDY    54  51  90 E3        30.16F FOG
PRAIRIE DU CHI CLOUDY    54  51  91 SE5       30.14F FOG
PLATTEVILLE    CLOUDY    51  51  98 E9        30.15F VSB 1/2
$$

WIZ056-057-062-063-064-067-068-060900-
SOUTH CENTRAL WISCONSIN

CITY           SKY/WX    TMP DP  RH WIND       PRES   REMARKS
REEDSBURG      CLOUDY    51  50  96 E3        30.17F FOG
BARABOO/DELLS  NOT AVBL
LONE ROCK      CLOUDY    52  50  93 SE9       30.17S FOG
MINERAL POINT  FOG       52  50  93 E8        30.16F VSB 1/4
MADISON        CLOUDY    51  49  92 SE10      30.18F FOG
MIDDLETON      CLOUDY    53  52  97 SE7       30.18F
WATERTOWN      MOCLDY    47  44  87 E5        30.19F
MONROE         FOG       50  50 100 E8        30.17F VSB 1/4
JANESVILLE     CLOUDY    50  50 100 E7        30.18S FOG
$$

WIZ051-052-058>065-066-070>072-060900-
SOUTHEAST WISCONSIN

CITY           SKY/WX    TMP DP  RH WIND       PRES   REMARKS
MILWAUKEE      CLOUDY    47  36  65 NE5       30.21F
WAUKESHA       CLOUDY    45  37  76 E3        30.20F
MILWAUKEE/TIMM CLOUDY    45  37  76 CALM      30.21F
RACINE         CLOUDY    47  40  76 NE3       30.22F
BURLINGTON     CLOUDY    46  41  84 E3        30.19F
KENOSHA        CLOUDY    47  42  83 E6        30.20F
FOND DU LAC    CLOUDY    49  43  80 E5        30.20F
SHEBOYGAN      LGT RAIN  47  42  83 E5        30.22F
WEST BEND      CLOUDY    45  41  87 CALM      30.21F
JUNEAU         CLOUDY    48  45  90 CALM      30.20F
$$

LSZ147-162-060900-
LAKE SUPERIOR

STATION/POSITION TIME  TEMP    WIND        PRES    WAVE
                       AIR SEA DIR/SP/G            HT/PER
                 (UTC) (F)     (DEG/KT/KT) (MB)    (FT/S)
W MID LAKE BUOY  0750   43 35  190/  4/  4 1022.8F   1
DEVILS ISLAND    0800   42      90/  7/  8 1022.3F
PORT WING        0740   43     120/  2/  3 1021.3F
SAXON HARBOR     0700   46        CALM     1021.3F
$$

LMZ867-665-643>646-060900-
LAKE MICHIGAN

STATION/POSITION TIME  TEMP    WIND        PRES    WAVE
                       AIR SEA DIR/SP/G            HT/PER
                 (UTC) (F)     (DEG/KT/KT) (MB)    (FT/S)
CHAMBERS ISLAND  0700   50      60/  4/  5 1024.4S
NORTHPORT PIER   0700   49     140/  4/  5 1024.0F
SISTER BAY       0702   47        CALM       N/A
KEWAUNEE LAKESHO 0700   49      50/  5/  7 1023.0F
SHEBOYGAN LAKESH 0800   46      20/  4/  5 1024.1F
PORT WASHINGTON  0700   47      10/  2/  3 1024.0F
ATWATER BUOY     0700   45     340/  4/  6 1024.4F
MILWAUKEE LAKESH 0700   47      30/  5/  7   N/A
KENOSHA   LAKESH 0800   45      10/  5/  6 1022.7F
$$

TC  - TEMPERATURE IN CELSIUS
VSB - VISIBILITY IN STATUTE MILES
WCI - WIND CHILL INDEX
HX  - HEAT INDEX



USA.gov is the U.S. government's official web portal to all federal, state and local government web resources and services.